Knox, IN

5:26 PM CST on February 09, 2016 (GMT -0600)
Starke County

Weather History for KOXI - May, 2013

Change the Weather History Date:

Friday, May 31, 2013

  Actual Average (KVPZ) Record (KVPZ)
Temperature  
Mean Temperature 70 °F 64 °F  
Max Temperature 75 °F 75 °F 90 °F (1998)
Min Temperature 65 °F 53 °F 42 °F (2003)
Degree Days  
Heating Degree Days 0 4  
Month to date heating degree days 220  
Since 1 July heating degree days 6279  
Cooling Degree Days 5 3  
Month to date cooling degree days 42  
Year to date cooling degree days 47  
Growing Degree Days 20 (Base 50)    
Moisture  
Dew Point 66 °F    
Average Humidity 88    
Maximum Humidity 99    
Minimum Humidity 70    
Precipitation  
Precipitation 0.00 in 0.10 in 0.78 in (2012)
Month to date precipitation 3.80  
Year to date precipitation 12.98  
Sea Level Pressure  
Sea Level Pressure 29.89 in    
Wind  
Wind Speed 14 mph (South)    
Max Wind Speed 28 mph    
Max Gust Speed 32 mph    
Visibility 10 miles    
Events      
T = Trace of Precipitation, MM = Missing Value Source: NWS Daily Summary

Daily Weather History Graph

Daily Weather History Graph

Search for Another Location

Airport or City:

Trip Planner

Search our weather history database for the weather conditions in past years. The results will help you decide how hot, cold, wet, or windy it might be!

Date:

Astronomy

May. 31, 2013 Rise Set
Actual Time 5:16 AM CDT 8:13 PM CDT
Civil Twilight 4:43 AM CDT 8:46 PM CDT
Nautical Twilight 4:01 AM CDT 9:28 PM CDT
Astronomical Twilight 3:12 AM CDT 10:17 PM CDT
Moon 12:44 AM CDT (5/31) 12:34 PM CDT (5/31)
Length of Visible Light 16h 03m
Length of Day
14h 56m
Waning Gibbous, 51% of the Moon is Illuminated
May 31
Waning Gibbous
May 31
Last Quarter
Jun 8
New
Jun 16
First Quarter
Jun 23
Full

Hourly Weather History & Observations

Time (CDT) Temp. Dew Point Humidity Pressure Visibility Wind Dir Wind Speed Gust Speed Precip Events Conditions
12:15 AM 74.7 °F 65.7 °F 73% 29.92 in 10.0 mi South 15.0 mph 20.7 mph N/A   Scattered Clouds
12:35 AM 74.7 °F 64.4 °F 70% 29.94 in 10.0 mi SW 27.6 mph 32.2 mph N/A   Mostly Cloudy
12:55 AM 69.8 °F 63.0 °F 79% 29.94 in 7.0 mi SSW 12.7 mph - N/A   Overcast
1:15 AM 66.0 °F 64.4 °F 94% 29.96 in 1.5 mi WSW 19.6 mph - N/A   Overcast
1:35 AM 65.1 °F 64.8 °F 99% 29.94 in 10.0 mi SSW 12.7 mph - N/A   Mostly Cloudy
1:55 AM 65.8 °F 64.6 °F 96% 29.94 in 10.0 mi SSW 15.0 mph 24.2 mph N/A   Scattered Clouds
2:15 AM 66.4 °F 64.6 °F 94% 29.91 in 10.0 mi South 11.5 mph - N/A   Mostly Cloudy
2:35 AM 66.0 °F 64.6 °F 95% 29.91 in 10.0 mi South 9.2 mph - N/A   Mostly Cloudy
2:55 AM 66.0 °F 64.8 °F 96% 29.90 in 10.0 mi SSE 9.2 mph - N/A   Mostly Cloudy
3:15 AM 66.2 °F 64.8 °F 95% 29.89 in 10.0 mi SSE 10.4 mph - N/A   Overcast
3:35 AM 66.2 °F 64.8 °F 95% 29.89 in 10.0 mi SSE 10.4 mph - N/A   Overcast
3:55 AM 66.2 °F 64.9 °F 96% 29.88 in 10.0 mi SSE 11.5 mph - N/A   Mostly Cloudy
4:15 AM 66.6 °F 65.3 °F 96% 29.88 in 10.0 mi South 13.8 mph - N/A   Clear
4:35 AM 67.3 °F 65.3 °F 93% 29.88 in 10.0 mi South 13.8 mph - N/A   Scattered Clouds
4:55 AM 67.8 °F 65.8 °F 93% 29.88 in 10.0 mi South 13.8 mph 21.9 mph N/A   Mostly Cloudy
5:15 AM 68.2 °F 66.2 °F 93% 29.88 in 10.0 mi South 13.8 mph - N/A   Overcast
5:35 AM 68.2 °F 66.2 °F 93% 29.88 in 10.0 mi South 12.7 mph - N/A   Mostly Cloudy
5:55 AM 68.2 °F 66.2 °F 93% 29.89 in 10.0 mi South 13.8 mph - N/A   Mostly Cloudy
6:15 AM 68.4 °F 66.2 °F 93% 29.91 in 10.0 mi South 13.8 mph 20.7 mph N/A   Overcast
6:35 AM 67.6 °F 65.7 °F 93% 29.91 in 10.0 mi South 16.1 mph 27.6 mph N/A   Overcast
6:55 AM 66.9 °F 64.9 °F 93% 29.92 in 10.0 mi South 12.7 mph - N/A   Scattered Clouds
7:15 AM 66.7 °F 64.6 °F 93% 29.91 in 10.0 mi South 6.9 mph 17.3 mph N/A   Clear
7:35 AM 66.6 °F 64.4 °F 93% 29.91 in 10.0 mi South 9.2 mph - N/A   Clear
7:55 AM 66.6 °F 64.6 °F 93% 29.92 in 10.0 mi South 10.4 mph - N/A   Clear
8:15 AM 67.1 °F 64.9 °F 93% 29.92 in 10.0 mi South 11.5 mph - N/A   Clear
8:35 AM 67.8 °F 65.5 °F 92% 29.92 in 10.0 mi South 11.5 mph 16.1 mph N/A   Clear
8:55 AM 69.1 °F 66.2 °F 91% 29.92 in 10.0 mi SSW 11.5 mph - N/A   Clear
9:15 AM 70.0 °F 66.2 °F 88% 29.92 in 10.0 mi South 15.0 mph - N/A   Clear
9:35 AM 70.3 °F 66.4 °F 87% 29.91 in 10.0 mi South 18.4 mph 21.9 mph N/A   Clear
9:55 AM 70.9 °F 66.9 °F 87% 29.91 in 10.0 mi South 13.8 mph 19.6 mph N/A   Clear
10:15 AM 71.6 °F 67.3 °F 86% 29.92 in 10.0 mi South 17.3 mph 23.0 mph N/A   Clear
10:35 AM 71.8 °F 67.1 °F 85% 29.93 in 10.0 mi South 12.7 mph - N/A   Scattered Clouds
10:55 AM 71.8 °F 66.6 °F 84% 29.93 in 10.0 mi SSW 12.7 mph 19.6 mph N/A   Clear
11:15 AM 71.8 °F 66.2 °F 83% 29.93 in 10.0 mi SSW 16.1 mph 23.0 mph N/A   Scattered Clouds
11:35 AM 71.8 °F 66.2 °F 83% 29.93 in 10.0 mi SSW 13.8 mph 20.7 mph N/A   Scattered Clouds
11:55 AM 72.0 °F 66.7 °F 84% 29.93 in 10.0 mi SSW 17.3 mph - N/A   Scattered Clouds
12:15 PM 72.3 °F 67.5 °F 85% 29.93 in 10.0 mi SSW 15.0 mph 21.9 mph N/A   Mostly Cloudy
12:35 PM 72.5 °F 68.0 °F 86% 29.92 in 10.0 mi SW 13.8 mph 18.4 mph N/A   Overcast
12:55 PM 72.9 °F 68.2 °F 85% 29.91 in 10.0 mi SSW 17.3 mph - N/A   Overcast
1:15 PM 72.9 °F 68.2 °F 85% 29.90 in 10.0 mi SSW 12.7 mph 20.7 mph N/A   Overcast
1:35 PM 72.5 °F 67.8 °F 85% 29.90 in 10.0 mi SSW 15.0 mph - N/A   Overcast
1:55 PM 73.2 °F 68.0 °F 84% 29.90 in 10.0 mi SSW 16.1 mph 21.9 mph N/A   Scattered Clouds
2:15 PM 73.8 °F 67.8 °F 82% 29.90 in 10.0 mi SSW 18.4 mph 21.9 mph N/A   Scattered Clouds
2:35 PM 73.4 °F 68.0 °F 83% 29.90 in 10.0 mi SSW 16.1 mph - N/A   Scattered Clouds
2:55 PM 74.1 °F 68.2 °F 82% 29.88 in 10.0 mi South 11.5 mph - N/A   Clear
3:15 PM 74.8 °F 68.4 °F 80% 29.88 in 10.0 mi South 12.7 mph 20.7 mph N/A   Clear
3:35 PM 75.4 °F 69.1 °F 81% 29.86 in 10.0 mi South 11.5 mph - N/A   Scattered Clouds
3:55 PM 74.8 °F 68.5 °F 81% 29.85 in 10.0 mi South 11.5 mph - N/A   Clear
4:15 PM 75.0 °F 68.5 °F 80% 29.86 in 10.0 mi SSW 10.4 mph 16.1 mph N/A   Clear
4:35 PM 75.6 °F 68.2 °F 78% 29.85 in 10.0 mi SSW 8.1 mph - N/A   Clear
4:55 PM 75.7 °F 68.0 °F 77% 29.86 in 10.0 mi SSW 10.4 mph - N/A   Clear
5:15 PM 75.6 °F 67.3 °F 75% 29.85 in 10.0 mi South 9.2 mph - N/A   Clear
5:35 PM 75.9 °F 67.5 °F 75% 29.84 in 10.0 mi South 9.2 mph - N/A   Clear
5:55 PM 75.6 °F 67.8 °F 77% 29.83 in 10.0 mi South 10.4 mph - N/A   Clear
6:15 PM 75.4 °F 68.0 °F 78% 29.83 in 10.0 mi South 13.8 mph - N/A   Scattered Clouds
6:35 PM 74.8 °F 68.0 °F 79% 29.84 in 10.0 mi South 13.8 mph - N/A   Mostly Cloudy
6:55 PM 73.9 °F 68.5 °F 83% 29.85 in 7.0 mi SW 5.8 mph - N/A   Overcast
7:15 PM 72.3 °F 68.9 °F 89% 29.83 in 0.5 mi SSE 10.4 mph - N/A   Overcast
9:35 PM 66.0 °F 65.5 °F 98% 29.84 in 7.0 mi South 5.8 mph - N/A   Unknown
9:55 PM 66.2 °F 65.7 °F 98% 29.85 in 10.0 mi SSE 6.9 mph - N/A   Overcast
10:15 PM 66.6 °F 66.2 °F 99% 29.85 in 10.0 mi SE 6.9 mph - N/A   Overcast
10:35 PM 66.7 °F 66.4 °F 99% 29.85 in 10.0 mi SE 10.4 mph - N/A   Overcast
10:55 PM 66.6 °F 66.2 °F 99% 29.84 in 10.0 mi SE 11.5 mph - N/A   Overcast
11:15 PM 66.6 °F 66.2 °F 99% 29.83 in 10.0 mi SE 10.4 mph - N/A   Overcast
11:35 PM 66.7 °F 66.4 °F 99% 29.82 in 10.0 mi SSE 10.4 mph - N/A   Overcast
11:55 PM 67.1 °F 66.7 °F 99% 29.82 in 10.0 mi SSE 9.2 mph - N/A   Overcast